STARLINK-31778 (59602 NORAD) Tracking and Keplerian Element Data

This shows tracking and keplerian element data for the satellite.

Feedback or suggestion? Click here.




ElementValue
Catalog59602
NameSTARLINK-31778
Epoch Orbit618
Epoch Day159.52100845
Epoch Year2024
RAAN91.6305
Inclination42.9996
Eccentricity0.0001358
Argument of Perigee253.7896
Mean Anonmoly106.2811
Mean Motion15.40699883
Decay Rate6.178E-05
L11 59602U 24080B 24159.52100845 .00006178 00000+0 15503-3 0 9990
L22 59602 42.9996 91.6305 0001358 253.7896 106.2811 15.40699883 6181



Live tracking and technical data element details for STARLINK-31778 (NORAD 59602). STARLINK-31778 can be tracked NOW for your location showing map with azimuth and elevation plus other details from your city location.







IsCatalogInMostPopularTable: catalog: 59602, numindb: 12
Update: records affected: 1



GetName: 59602 STARLINK-31778

Hit Count: updated at: Fri, 14 Jun 2024 19:12:45 GMT